User: anonymous   Login
Location: Newark
(12.4436°N, 0.6167°W)
Time: 05:29:10
(UTC+00:00)
Language:

Tiros 1 - Orbit

View from above orbital plane
View from above orbital plane
View from above satellite
View from above satellite

Ground track
Ground track

The orbit data is extracted from the following two-line orbital elements,

1    29U 60002B   19348.77084174 -.00000140  00000-0  10151-4 0  9990
2    29  48.3796 104.8943 0024024 159.2247 200.9647 14.74333053191261
Epoch (UTC): 14 December 2019 18:30:00
Eccentricity: 0.0024024
inclination: 48.3796°
perigee height: 630 km
apogee height: 664 km
right ascension of ascending node: 104.8943°
argument of perigee: 159.2247°
revolutions per day: 14.74333053
mean anomaly at epoch: 200.9647°
orbit number at epoch: 19126

The dashed part of the orbit path shows where the satellite is in the earth's shadow,  

DLR